When you browse on this site, cookies collect data to enhance your experience and personalize the content and advertising you see.
Visit our Privacy Policy to learn more. By continuing to use the site, you agree to this use of cookies and data.
  • în România
  • Lista ţărilor
  • Pe 7 zile
  • Temperatura apei
  • Hartă satelitară
  • Meteo pe hartă
  • Widget-uri
  • user-avatar
    Intrare

    Meteo pe oră la Cajamarca

    Astăzi, 26 Mai, Duminică

    Timp Temperatura Precipitaţii Vânt Presiune Umiditate
    00:00 +9°C° 0 mm 2 m/s 543 mmHg 89%
    01:00 +9°C° 0 mm 2 m/s 542 mmHg 88%
    02:00 +9°C° 0 mm 2 m/s 542 mmHg 88%
    03:00 +8°C° 0 mm 2 m/s 542 mmHg 87%
    04:00 +8°C° 0 mm 2 m/s 541 mmHg 86%
    05:00 +8°C° 0 mm 2 m/s 542 mmHg 85%
    06:00 +9°C° 0 mm 2 m/s 542 mmHg 83%
    07:00 +10°C° 0 mm 2 m/s 543 mmHg 81%
    08:00 +13°C° 0 mm 2 m/s 544 mmHg 73%
    09:00 +16°C° 0 mm 2 m/s 546 mmHg 65%
    10:00 +18°C° 0 mm 2 m/s 548 mmHg 57%
    11:00 +18°C° 0.1 mm 2 m/s 547 mmHg 57%
    12:00 +19°C° 0.1 mm 2 m/s 547 mmHg 56%
    13:00 +19°C° 0.1 mm 2 m/s 547 mmHg 56%
    14:00 +18°C° 0.3 mm 2 m/s 546 mmHg 58%
    15:00 +18°C° 0.3 mm 2 m/s 545 mmHg 61%
    16:00 +17°C° 0.3 mm 2 m/s 545 mmHg 64%
    17:00 +16°C° 0.2 mm 1 m/s 544 mmHg 73%
    18:00 +14°C° 0.2 mm 1 m/s 543 mmHg 81%
    19:00 +11°C° 0.2 mm 0 m/s 542 mmHg 90%
    20:00 +10°C° 0.1 mm 0 m/s 542 mmHg 90%
    21:00 +10°C° 0.1 mm 0 m/s 543 mmHg 91%
    22:00 +9°C° 0.1 mm 0 m/s 543 mmHg 91%
    23:00 +9°C° 0 mm 0 m/s 542 mmHg 91%

    Mâine, 27 Mai, Luni

    Timp Temperatura Precipitaţii Vânt Presiune Umiditate
    00:00 +9°C° 0 mm 1 m/s 542 mmHg 92%
    01:00 +9°C° 0 mm 1 m/s 542 mmHg 92%
    02:00 +9°C° 0 mm 1 m/s 541 mmHg 91%
    03:00 +9°C° 0 mm 1 m/s 541 mmHg 91%
    04:00 +8°C° 0 mm 1 m/s 541 mmHg 91%
    05:00 +9°C° 0 mm 1 m/s 541 mmHg 89%
    06:00 +10°C° 0 mm 1 m/s 542 mmHg 88%
    07:00 +11°C° 0 mm 1 m/s 542 mmHg 86%
    08:00 +13°C° 0 mm 1 m/s 544 mmHg 76%
    09:00 +16°C° 0 mm 2 m/s 546 mmHg 65%
    10:00 +19°C° 0 mm 2 m/s 548 mmHg 54%
    11:00 +18°C° 0.3 mm 2 m/s 547 mmHg 57%
    12:00 +18°C° 0.3 mm 2 m/s 547 mmHg 59%
    13:00 +18°C° 0.3 mm 2 m/s 546 mmHg 61%
    14:00 +17°C° 0.6 mm 2 m/s 545 mmHg 65%
    15:00 +17°C° 0.6 mm 2 m/s 544 mmHg 68%
    16:00 +16°C° 0.6 mm 2 m/s 544 mmHg 71%
    17:00 +15°C° 0.5 mm 1 m/s 543 mmHg 79%
    18:00 +13°C° 0.5 mm 1 m/s 542 mmHg 86%
    19:00 +11°C° 0.5 mm 0 m/s 542 mmHg 93%
    20:00 +10°C° 0.1 mm 0 m/s 542 mmHg 93%
    21:00 +11°C° 0.1 mm 1 m/s 542 mmHg 93%
    22:00 +11°C° 0.1 mm 1 m/s 543 mmHg 93%
    23:00 +11°C° 0 mm 1 m/s 543 mmHg 93%

    Poimâine, 28 Mai, Marţi

    Timp Temperatura Precipitaţii Vânt Presiune Umiditate
    00:00 +11°C° 0 mm 1 m/s 542 mmHg 92%
    01:00 +11°C° 0 mm 1 m/s 542 mmHg 92%
    02:00 +9°C° 0 mm 0 m/s 542 mmHg 92%
    03:00 +9°C° 0 mm 0 m/s 542 mmHg 92%
    04:00 +9°C° 0 mm 0 m/s 541 mmHg 91%
    05:00 +10°C° 0 mm 1 m/s 542 mmHg 90%
    06:00 +11°C° 0 mm 1 m/s 542 mmHg 88%
    07:00 +10°C° 0 mm 2 m/s 543 mmHg 86%
    08:00 +14°C° 0 mm 2 m/s 544 mmHg 76%
    09:00 +16°C° 0 mm 2 m/s 546 mmHg 66%
    10:00 +18°C° 0 mm 2 m/s 548 mmHg 56%
    11:00 +18°C° 0.2 mm 2 m/s 547 mmHg 57%
    12:00 +18°C° 0.2 mm 2 m/s 546 mmHg 58%
    13:00 +18°C° 0.2 mm 2 m/s 546 mmHg 59%
    14:00 +18°C° 0.3 mm 2 m/s 545 mmHg 61%
    15:00 +17°C° 0.3 mm 2 m/s 544 mmHg 63%
    16:00 +17°C° 0.3 mm 2 m/s 544 mmHg 65%
    17:00 +15°C° 0.1 mm 2 m/s 543 mmHg 73%
    18:00 +14°C° 0.1 mm 1 m/s 542 mmHg 80%
    19:00 +12°C° 0.1 mm 1 m/s 542 mmHg 88%
    20:00 +11°C° 0 mm 1 m/s 542 mmHg 88%
    21:00 +11°C° 0 mm 1 m/s 542 mmHg 88%
    22:00 +9°C° 0 mm 2 m/s 542 mmHg 87%
    23:00 +9°C° 0 mm 2 m/s 542 mmHg 87%

    29 Mai, Miercuri

    Timp Temperatura Precipitaţii Vânt Presiune Umiditate
    00:00 +9°C° 0 mm 2 m/s 542 mmHg 87%
    01:00 +8°C° 0 mm 2 m/s 541 mmHg 87%
    02:00 +8°C° 0 mm 2 m/s 541 mmHg 86%
    03:00 +9°C° 0 mm 1 m/s 541 mmHg 86%
    04:00 +9°C° 0 mm 1 m/s 540 mmHg 85%
    05:00 +9°C° 0 mm 1 m/s 541 mmHg 83%
    06:00 +9°C° 0 mm 2 m/s 542 mmHg 81%
    07:00 +9°C° 0 mm 2 m/s 542 mmHg 79%
    08:00 +13°C° 0 mm 2 m/s 544 mmHg 69%
    09:00 +16°C° 0 mm 2 m/s 546 mmHg 59%
    10:00 +19°C° 0 mm 2 m/s 548 mmHg 49%
    11:00 +19°C° 0 mm 2 m/s 547 mmHg 48%
    12:00 +20°C° 0 mm 2 m/s 547 mmHg 46%
    13:00 +20°C° 0 mm 3 m/s 546 mmHg 45%
    14:00 +20°C° 0.2 mm 2 m/s 546 mmHg 49%
    15:00 +19°C° 0.2 mm 2 m/s 545 mmHg 54%
    16:00 +18°C° 0.2 mm 2 m/s 544 mmHg 59%
    17:00 +16°C° 0.1 mm 2 m/s 543 mmHg 68%
    18:00 +13°C° 0.1 mm 1 m/s 543 mmHg 77%
    19:00 +10°C° 0.1 mm 0 m/s 542 mmHg 87%
    20:00 +11°C° 0 mm 1 m/s 542 mmHg 85%
    21:00 +11°C° 0 mm 1 m/s 542 mmHg 84%
    22:00 +11°C° 0 mm 1 m/s 543 mmHg 82%
    23:00 +10°C° 0 mm 1 m/s 542 mmHg 82%

    30 Mai, Joi

    Timp Temperatura Precipitaţii Vânt Presiune Umiditate
    00:00 +10°C° 0 mm 1 m/s 542 mmHg 82%
    01:00 +9°C° 0 mm 1 m/s 541 mmHg 82%
    02:00 +9°C° 0 mm 1 m/s 541 mmHg 83%
    03:00 +9°C° 0 mm 1 m/s 541 mmHg 84%
    04:00 +7°C° 0 mm 0 m/s 540 mmHg 85%
    05:00 +9°C° 0 mm 1 m/s 541 mmHg 83%
    06:00 +10°C° 0 mm 1 m/s 542 mmHg 81%
    07:00 +10°C° 0 mm 1 m/s 543 mmHg 79%
    08:00 +13°C° 0 mm 1 m/s 544 mmHg 71%
    09:00 +16°C° 0 mm 2 m/s 546 mmHg 63%
    10:00 +18°C° 0 mm 2 m/s 548 mmHg 55%
    11:00 +19°C° 0 mm 2 m/s 547 mmHg 55%
    12:00 +19°C° 0 mm 2 m/s 547 mmHg 56%
    13:00 +19°C° 0 mm 2 m/s 546 mmHg 56%
    14:00 +18°C° 0.2 mm 2 m/s 545 mmHg 61%
    15:00 +17°C° 0.2 mm 2 m/s 544 mmHg 67%
    16:00 +17°C° 0.2 mm 2 m/s 544 mmHg 72%
    17:00 +15°C° 0.1 mm 1 m/s 543 mmHg 79%
    18:00 +13°C° 0.1 mm 1 m/s 543 mmHg 86%
    19:00 +12°C° 0.1 mm 1 m/s 542 mmHg 92%
    20:00 +11°C° 0 mm 1 m/s 542 mmHg 92%
    21:00 +10°C° 0 mm 1 m/s 542 mmHg 92%
    22:00 +10°C° 0 mm 1 m/s 542 mmHg 92%
    23:00 +9°C° 0 mm 1 m/s 542 mmHg 92%

    31 Mai, Vineri

    Timp Temperatura Precipitaţii Vânt Presiune Umiditate
    00:00 +8°C° 0 mm 0 m/s 541 mmHg 92%
    01:00 +8°C° 0 mm 0 m/s 541 mmHg 92%
    02:00 +7°C° 0 mm 0 m/s 541 mmHg 92%
    03:00 +7°C° 0 mm 0 m/s 540 mmHg 92%
    04:00 +7°C° 0 mm 0 m/s 540 mmHg 92%
    05:00 +9°C° 0 mm 1 m/s 541 mmHg 90%
    06:00 +9°C° 0 mm 1 m/s 542 mmHg 88%
    07:00 +10°C° 0 mm 1 m/s 542 mmHg 86%
    08:00 +13°C° 0 mm 1 m/s 544 mmHg 75%
    09:00 +16°C° 0 mm 1 m/s 546 mmHg 64%
    10:00 +19°C° 0 mm 2 m/s 547 mmHg 53%
    11:00 +19°C° 0 mm 2 m/s 547 mmHg 51%
    12:00 +20°C° 0 mm 2 m/s 547 mmHg 49%
    13:00 +21°C° 0 mm 2 m/s 547 mmHg 47%
    14:00 +19°C° 0.1 mm 2 m/s 545 mmHg 54%
    15:00 +18°C° 0.1 mm 2 m/s 544 mmHg 61%
    16:00 +17°C° 0.1 mm 2 m/s 543 mmHg 68%
    17:00 +15°C° 0 mm 1 m/s 543 mmHg 76%
    18:00 +14°C° 0 mm 1 m/s 542 mmHg 83%
    19:00 +12°C° 0 mm 1 m/s 542 mmHg 91%
    20:00 +12°C° 0 mm 1 m/s 542 mmHg 92%
    21:00 +10°C° 0 mm 0 m/s 542 mmHg 93%
    22:00 +10°C° 0 mm 0 m/s 542 mmHg 94%
    23:00 +10°C° 0 mm 0 m/s 542 mmHg 94%
    Arată mai mult